{"data":{"norad_id":51732,"intl_designator":"2022-016U","name":"STARLINK-3518","alt_names":[],"object_type":"PAYLOAD","status":"ACTIVE","operator":null,"country":"US","launch_date":"2022-02-21","launch_site_code":"AFETR","launch_vehicle":null,"mission":null,"orbit_class":"UNKNOWN","rcs_meters":null,"size_class":null,"mass_kg":null,"dimensions":null,"purposes":["comms"],"wikipedia_slug":null,"has_3d_model":false,"image_url":null,"decayed_at":null,"tle_current":{"epoch":"2026-05-24T20:08:31.323552Z","epoch_age_seconds":82315,"freshness":"FRESH","line1":"1 51732U 22016U   26144.83925143  .00000068  00000+0  22387-4 0  9990","line2":"2 51732  53.2132 337.2758 0001786  97.7745 262.3450 15.08835913236200","mean_motion":15.08835913,"eccentricity":0.0001786,"inclination_deg":53.2132,"raan_deg":337.2758,"arg_perigee_deg":97.7745,"mean_anomaly_deg":262.345,"bstar":2.2387e-5,"rev_number":23620,"period_min":95.437813190492,"perigee_km":538.52034564767,"apogee_km":540.99141698487,"semimajor_km":6917.8928813163,"source":"CELESTRAK","updated_at":"2026-05-25T13:38:16.923076Z"}}}